THOR ABLESTAR DEB, 177

Orbit data source: Space-Track

THOR ABLESTAR DEB, 177 is space debris in LEO originally from a launch on Thu, 29 Jun 1961 UTC launched from the Air Force Eastern Test Range (AFETR). Debris objects in space refer to the collection of defunct objects orbiting the Earth. Examples of debris include non-operational satellites, rocket bodies, and fragments generated from explosions, collisions, or faulty payload assembly.

Loading next visibility...
Identifier
177, 1961-015BB
Orbit
LEO
Last TLE update
14 hours ago
Origin
Manufacturer
Unknown
Mission
Spacecraft
Bus & Motor
Unknown
Mass
Unknown
Launch date (UTC)
1961-06-29 (64 years ago)
Launch vehicle
Unknown
Launch site
Air Force Eastern Test Range (AFETR)
Object type
Payload
Rocket body
Debris
Shape & HBR
Unknown
Radar Cross Section
Medium (>0.1 m² and <1 m²)

Expand to show TLE details & history

TLE from 14 hours ago
0 THOR ABLESTAR DEB
1 00177U 61015BB  25200.79517503 -.00000221  00000-0 -67274-4 0  9991
2 00177  66.6571 332.6873 0112985 319.1597  40.1065 14.14657112294149
Epoch: 2025-07-19T19:05Z
TLE epoch observation values (Epoch: 2025-07-19T19:05:03.122Z)
Latitude
-0.00002°
Longitude
108.59713°
Altitude
783.542 km
Speed
7.494 km/s
True Right ascension
22h 10m 44s
True Declination
0° 00' 00"
Sunlit
Object was in full shadow at epoch
Visualization orbit readout
Latitude
66.37864°
Longitude
-151.89586°
Altitude
911.994 km
Speed
7.373 km/s
Apparent Right ascension
08h 09m 49s
Apparent Declination
22° 33' 54"
Sunlit
Object is in daylight
Visualization observer readout
Local Sidereal Time
21:59:16
Azimuth
27.353° NE
Elevation
-22.506°
Doppler factor
1
Orbital elements
Apogee altitude
923.445 km
Perigee altitude
760.295 km
Semi-major axis
7,220.007 km
Eccentricity
0.0113
Inclination
66.6571°
RAAN
332.6873°
Arg. of periapsis
319.1597°
True anomaly
40.94964°
Mean anomaly
40.1065°
Eccentric anomaly
40.52716°
Mean motion
3.53783 °/min
Orbital period
101.76 mins
BSTAR
-0.000067274
Loading maneuver chart data...
Loading SW <> Apogee altitude chart data...
|